EW3693 Weather Reports


time (UTC)temp
F
wind
direction
speed
knots
gust
knots
rain 1hr
in
rain 24hr
in
rain mn
in
humidity
%
barometer
mb
20260903053517 59 0 5.2 13.0 0.00 0.02 0.02 94 1015.5
20260903052517 59 0 5.2 9.6 0.00 0.02 0.02 95 1015.7
20260903051537 59 0 4.3 9.6 0.00 0.02 0.02 95 1015.8
20260903050517 59 0 3.5 7.0 0.00 0.02 0.02 95 1015.8
20260903045517 58 0 3.5 7.8 0.01 0.02 0.02 95 1015.8
20260903044517 58 0 2.6 7.0 0.01 0.02 0.02 95 1016.0
20260903043517 58 0 3.5 7.0 0.01 0.02 0.02 95 1016.2
20260903042517 58 203 2.6 5.2 0.01 0.02 0.02 95 1016.1
20260903041517 58 203 2.6 4.3 0.01 0.02 0.02 95 1016.2
20260903040517 58 180 2.6 7.8 0.01 0.02 0.02 95 1016.3
20260903035517 58 0 3.5 7.0 0.01 0.01 0.01 94 1016.3
20260903034517 59 0 2.6 7.8 0.01 0.01 0.01 94 1016.4
20260903033537 59 203 2.6 6.1 0.01 0.01 0.01 94 1016.5
20260903032517 59 203 1.7 4.3 0.01 0.01 0.01 94 1016.5
20260903031517 59 203 1.7 5.2 0.01 0.01 0.01 94 1016.6
20260903030517 59 203 1.7 7.8 0.01 0.01 0.01 93 1016.7
20260903025517 59 203 1.7 7.0 0.00 0.00 0.00 93 1016.8
20260903024517 59 203 0.9 2.6 0.00 0.00 0.00 93 1016.8
20260903023517 59 203 0.9 1.7 0.00 0.00 0.00 92 1016.9
20260903022517 59 0 0.9 2.6 0.00 0.00 0.00 92 1017.0
20260903021517 59 225 0.9 4.3 0.00 0.00 0.00 92 1017.2
20260903020517 59 203 0.9 2.6 0.00 0.00 0.00 92 1017.3
20260903015517 59 225 0.9 2.6 0.00 0.00 0.00 92 1017.2
20260903014537 59 225 1.7 5.2 0.00 0.00 0.00 92 1017.4
20260903013517 59 0 2.6 5.2 0.00 0.00 0.00 92 1017.5
20260903012516 59 225 3.5 6.1 0.00 0.00 0.00 92 1017.5
20260903011516 59 0 2.6 5.2 0.00 0.00 0.00 92 1017.5
20260903010517 59 225 2.6 5.2 0.00 0.00 0.00 92 1017.5
20260903005536 59 225 0.9 2.6 0.00 0.00 0.00 92 1017.6
20260903004516 59 0 2.6 5.2 0.00 0.00 0.00 93 1017.6
20260903003517 59 0 2.6 5.2 0.00 0.00 0.00 93 1017.8
20260903002537 59 0 3.5 7.0 0.00 0.00 0.00 93 1017.8
20260903001516 59 0 2.6 7.0 0.00 0.00 0.00 93 1017.9
20260903000517 59 0 2.6 4.3 0.00 0.00 0.00 93 1018.0
20260902235536 59 0 1.7 4.3 0.00 0.00 0.00 93 1018.0
20260902234516 59 0 4.3 6.1 0.00 0.00 0.00 93 1018.0
20260902233536 59 0 3.5 5.2 0.00 0.00 0.00 93 1018.0
20260902232517 59 248 4.3 6.1 0.00 0.00 0.00 93 1018.2
20260902231516 59 0 3.5 4.3 0.00 0.00 0.00 92 1018.2
20260902230516 59 0 3.5 6.1 0.00 0.00 0.00 92 1018.2
20260902225516 59 248 3.5 6.1 0.00 0.00 0.00 92 1018.1
20260902224536 60 0 4.3 7.0 0.00 0.00 0.00 91 1018.2
20260902223516 60 0 3.5 4.3 0.00 0.00 0.00 90 1018.2
20260902222518 61 0 3.5 7.0 0.00 0.00 0.00 89 1018.2
20260902221518 60 0 3.5 7.0 0.00 0.00 0.00 90 1018.2
20260902220518 60 0 2.6 4.3 0.00 0.00 0.00 91 1018.2
20260902215518 60 225 1.7 3.5 0.00 0.00 0.00 91 1018.2
20260902214518 60 0 0.9 2.6 0.00 0.00 0.00 90 1018.2
20260902213518 61 248 1.7 2.6 0.00 0.00 0.00 90 1018.3
20260902212518 61 248 1.7 2.6 0.00 0.00 0.00 90 1018.2
20260902211518 61 0 2.6 3.5 0.00 0.00 0.00 90 1018.2
20260902210517 61 248 0.9 1.7 0.00 0.00 0.00 90 1018.2
20260902205518 61 248 1.7 2.6 0.00 0.00 0.00 89 1018.2
20260902204518 61 0 2.6 3.5 0.00 0.00 0.00 89 1018.2
20260902203518 61 0 1.7 2.6 0.00 0.00 0.00 90 1018.2
20260902202538 61 0 1.7 2.6 0.00 0.00 0.00 90 1018.3
20260902201518 61 0 2.6 3.5 0.00 0.00 0.00 90 1018.3
20260902200538 61 270 2.6 3.5 0.00 0.00 0.00 89 1018.3
20260902195518 62 0 2.6 3.5 0.00 0.00 0.00 88 1018.3
20260902194518 62 270 3.5 5.2 0.00 0.00 0.00 87 1018.3
20260902193518 62 0 2.6 4.3 0.00 0.00 0.00 86 1018.2
20260902192518 63 0 4.3 6.1 0.00 0.00 0.00 85 1018.3
20260902191518 63 0 3.5 5.2 0.00 0.00 0.00 85 1018.3
20260902190518 63 0 3.5 5.2 0.00 0.00 0.00 85 1018.4
20260902185518 62 0 3.5 5.2 0.00 0.00 0.00 86 1018.3
20260902184518 63 0 2.6 3.5 0.00 0.00 0.00 86 1018.2
20260902183518 63 270 3.5 5.2 0.00 0.00 0.00 85 1018.1
20260902182538 63 0 3.5 5.2 0.00 0.00 0.00 84 1017.9
20260902181518 62 0 7.8 10.4 0.00 0.00 0.00 83 1017.8
20260902180538 63 225 1.7 2.6 0.00 0.00 0.00 83 1017.6
20260902175538 63 225 0.9 2.6 0.00 0.00 0.00 80 1017.6
20260902174518 64 0 1.7 3.5 0.00 0.00 0.00 79 1017.5
20260902173518 64 0 1.7 2.6 0.00 0.00 0.00 80 1017.6
20260902172518 64 0 2.6 3.5 0.00 0.00 0.00 79 1017.7
20260902171518 65 0 3.5 4.3 0.00 0.00 0.00 77 1017.7
20260902170518 65 0 3.5 5.2 0.00 0.00 0.00 77 1017.8
20260902165518 66 0 3.5 7.0 0.00 0.00 0.00 74 1017.8
20260902164518 68 0 6.1 8.7 0.00 0.00 0.00 69 1017.7
20260902163517 69 0 7.0 8.7 0.00 0.00 0.00 67 1017.6
20260902162518 70 0 7.0 9.6 0.00 0.00 0.00 65 1017.7
20260902161537 70 0 5.2 10.4 0.00 0.00 0.00 62 1017.8
20260902160518 70 0 6.1 8.7 0.00 0.00 0.00 65 1017.8
20260902155517 71 0 7.8 10.4 0.00 0.00 0.00 63 1017.8
20260902154518 71 0 8.7 12.2 0.00 0.00 0.00 64 1017.9
20260902153518 72 0 7.0 12.2 0.00 0.00 0.00 62 1017.9
20260902152517 72 0 9.6 13.0 0.00 0.00 0.00 61 1017.9
20260902151518 73 0 7.8 11.3 0.00 0.00 0.00 60 1017.9
20260902150517 73 0 7.8 11.3 0.00 0.00 0.00 62 1018.0
20260902145517 73 0 8.7 12.2 0.00 0.00 0.00 58 1018.1
20260902144517 73 0 7.0 10.4 0.00 0.00 0.00 60 1018.1
20260902143517 74 0 8.7 13.9 0.00 0.00 0.00 61 1018.1
20260902142517 73 0 9.6 13.0 0.00 0.00 0.00 63 1018.2
20260902141518 74 0 9.6 13.0 0.00 0.00 0.00 61 1018.3
20260902140537 74 0 8.7 12.2 0.00 0.00 0.00 61 1018.3
20260902135518 74 0 11.3 15.6 0.00 0.01 0.00 60 1018.4
20260902134517 74 0 10.4 14.8 0.00 0.01 0.00 59 1018.4
20260902133517 74 0 9.6 14.8 0.00 0.01 0.00 66 1018.5
20260902132517 74 0 8.7 12.2 0.00 0.01 0.00 64 1018.4
20260902131520 75 0 8.7 11.3 0.00 0.01 0.00 66 1018.5
20260902130517 72 0 8.7 12.2 0.00 0.01 0.00 71 1018.6
20260902125557 70 0 8.7 10.4 0.00 0.01 0.00 68 1018.5
20260902124517 70 0 7.0 10.4 0.00 0.01 0.00 71 1018.6
20260902123517 70 0 10.4 13.0 0.00 0.01 0.00 70 1018.6
20260902122517 71 0 7.8 10.4 0.00 0.01 0.00 67 1018.8
20260902121517 69 0 8.7 15.6 0.00 0.01 0.00 64 1018.7
20260902120517 70 0 9.6 13.9 0.00 0.01 0.00 66 1018.8
20260902115517 70 0 7.8 13.9 0.00 0.01 0.00 66 1018.8
20260902114517 70 0 11.3 18.2 0.00 0.01 0.00 68 1018.9
20260902113517 71 0 11.3 16.5 0.00 0.01 0.00 68 1019.0
20260902112517 72 0 13.0 18.2 0.00 0.01 0.00 67 1019.0
20260902111517 71 0 8.7 16.5 0.00 0.01 0.00 72 1019.1
20260902110517 68 0 8.7 14.8 0.00 0.01 0.00 74 1019.1
20260902105517 69 0 9.6 13.0 0.00 0.01 0.00 73 1019.3
20260902104517 69 0 9.6 13.9 0.00 0.01 0.00 74 1019.4
20260902103517 67 0 8.7 13.0 0.00 0.01 0.00 75 1019.4
20260902102517 67 0 11.3 13.9 0.00 0.01 0.00 74 1019.4
20260902101517 69 0 11.3 15.6 0.00 0.01 0.00 75 1019.4
20260902100517 68 0 9.6 14.8 0.00 0.01 0.00 76 1019.5
20260902095517 68 0 7.8 12.2 0.00 0.01 0.00 76 1019.4
20260902094517 67 0 8.7 12.2 0.00 0.01 0.00 76 1019.6
20260902093517 66 0 6.1 11.3 0.00 0.01 0.00 79 1019.5
20260902092517 66 0 7.0 11.3 0.00 0.01 0.00 80 1019.5
20260902091557 64 0 8.7 13.9 0.00 0.01 0.00 80 1019.6
20260902090517 65 0 9.6 13.9 0.00 0.01 0.00 81 1019.6
20260902085517 67 0 8.7 11.3 0.00 0.01 0.00 81 1019.6
20260902084517 65 0 3.5 9.6 0.00 0.01 0.00 84 1019.7
20260902083516 64 0 3.5 9.6 0.00 0.01 0.00 85 1019.7
20260902082517 65 0 4.3 7.0 0.00 0.01 0.00 84 1019.7
20260902081516 62 0 3.5 7.8 0.00 0.01 0.00 88 1019.6
20260902080516 62 225 2.6 7.0 0.00 0.01 0.00 89 1019.6
20260902075536 62 0 2.6 7.0 0.00 0.01 0.00 90 1019.6
20260902074516 61 0 2.6 7.0 0.00 0.01 0.00 91 1019.6
20260902073516 60 225 2.6 5.2 0.00 0.01 0.00 91 1019.5
20260902072536 60 0 2.6 8.7 0.00 0.01 0.00 92 1019.6
20260902071516 60 0 5.2 9.6 0.00 0.01 0.00 93 1019.6
20260902070517 59 0 2.6 7.0 0.00 0.01 0.00 94 1019.5
20260902065517 58 225 0.9 4.3 0.00 0.01 0.00 96 1019.6
20260902064517 56 225 0.9 2.6 0.00 0.01 0.00 97 1019.6
20260902063516 56 225 0.9 2.6 0.00 0.01 0.00 97 1019.6
20260902062536 55 0 3.5 7.8 0.00 0.01 0.00 97 1019.6
20260902061516 55 0 4.3 7.8 0.00 0.01 0.00 97 1019.6
20260902060516 56 0 4.3 7.8 0.00 0.01 0.00 98 1019.6
20260902055517 54 225 0.9 4.3 0.00 0.01 0.00 98 1019.4
20260902054516 52 203 0.9 2.6 0.00 0.01 0.00 98 1019.4